SCP
0 0 0 0 0 0 0 0 0 0 0 0 0 0 0 0 0 0 0 0 0 0 0 0 0 0 0 0 0 0 0 0 0 0 0 0 0 0 0 0 0 0 0
0 0 0 0 0 0 0 0 0 0 0 0 0 0 0 0 0 0 0 0 0 0 0 0 0 0 0 0 0 0 0 0 0 0 0 0 0 0 0 0 0 0 0
0 0 0 0 0 0 0 0 0 0 0 0 0 0 0 0 0 0 0 0 0 0 0 0 0 0 0 0 0 0 0 0 0 0 0 0 0 0 0 0 0 0 0
0 0 0 0 0 0 0 0 0 0 0 0 0 0 0 0 0 0 0 0 0 0 0 0 0 0 0 0 0 0 0 0 0 0 0 0 0 0 0 0 0 0 0
0 0 0 0 0 0 0 0 0 0 0 0 0 0 0 0 0 0 0 0 0 0 0 0 0 0 0 0 0 0 0 0 0 0 0 0 0 0 0 0 0 0 0
0 0 0 0 0 0 0 0 0 0 0 0 0 0 0 0 0 0 0 0 0 0 0 0 0 0 0 0 0 0 0 0 0 0 0 0 0 0 0 0 0 0 0
0 0 0 0 0 0 0 0 0 0 0 0 0 0 0 0 0 0 0 0 0 0 0 0 0 0 0 0 0 0 0 0 0 0 0 0 0 0 0 0 0 0 0
0 0 0 0 0 0 0 0 0 0 0 0 0 0 0 0 0 0 0 0 0 0 0 0 0 0 0 0 0 0 0 0 0 0 0 0 0 0 0 0 0 0 0
0 0 0 0 0 0 0 0 0 0 0 0 0 0 0 0 0 0 0 0 0 0 0 0 0 0 0 0 0 0 0 0 0 0 0 0 0 0 0 0 0 0 0
0 0 0 0 0 0 0 0 0 0 0 0 0 0 0 0 0 0 0 0 0 0 0 0 0 0 0 0 0 0 0 0 0 0 0 0 0 0 0 0 0 0 0
0 0 0 0 0 0 0 0 0 0 0 0 0 0 0 0 0 0 0 0 0 0 0 0 0 0 0 0 0 0 0 0 0 0 0 0 0 0 0 0 0 0 0
0 0 0 0 0 0 0 0 0 0 0 0 0 0 0 0 0 0 0 0 0 0 0 0 0 0 0 0 0 0 0 0 0 0 0 0 0 0 0 0 0 0 0
0 0 0 0 0 0 0 0 0 0 0 0 0 0 0 0 0 0 0 0 0 0 0 0 0 0 0 0 0 0 0 0 0 0 0 0 0 0 0 0 0 0 0
0 0 0 0 0 0 0 0 0 0 0 0 0 0 0 0 0 0 0 0 0 0 0 0 0 0 0 0 0 0 0 0 0 0 0 0 0 0 0 0 0 0 0
0 0 0 0 0 0 0 0 0 0 0 0 0 0 0 0 0 0 0 -0 -0 0 0 0 0 0 0 0 0 0 0 0 0 0 0 0 0 0 0 0 0 0 0
0 0 0 0 0 0 0 0 0 0 0 0 0 0 0 0 0 0 0 0 0 0 0 0 0 0 0 0 0 0 0 0 0 0 0 0 0 0 0 0 0 0 0
0 0 0 0 0 0 0 0 0 0 0 0 0 0 0 0 0 0 0 0 0 0 0 0 0 0 0 0 0 0 0 0 0 0 0 0 0 0 0 0 0 0 0
0 0 0 0 0 0 0 0 0 0 0 0 0 0 0 0 0 0 0 0 0 0 0 0 0 0 0 0 0 0 0 0 0 0 0 0 0 0 0 0 0 0 0
0 0 0 0 0 0 0 0 0 0 0 0 0 0 0 0 0 0 0 0 0 0 0 0 0 0 0 0 0 0 0 0 0 0 0 0 0 0 0 0 0 0 0
0 0 0 0 0 0 0 0 0 0 0 0 0 0 0 0 0 0 0 0 0 0 0 0 0 0 0 0 0 0 0 0 0 0 0 0 0 0 0 0 0 0 0
0 0 0 0 0 0 0 0 0 0 0 0 0 0 0 0 0 0 0 0 0 0 0 0 0 0 0 0 0 0 0 0 0 0 0 0 0 0 0 0 0 0 0
0 0 0 0 0 0 0 0 0 0 0 0 0 0 0 0 0 0 0 0 0 0 0 0 0 0 0 0 0 0 0 0 0 0 0 0 0 0 0 0 0 0 0
0 0 0 0 0 0 0 0 0 0 0 0 0 0 0 0 0 0 0 0 0 0 0 0 0 0 0 0 0 0 0 0 0 0 0 0 0 0 0 0 0 0 0
0 0 0 0 0 0 0 0 0 0 0 0 0 0 0 0 0 0 0 0 0 0 0 0 0 0 0 0 0 0 0 0 0 0 0 0 0 0 0 0 0 0 0
0 0 0 0 0 0 0 0 0 0 0 0 0 0 0 0 0 0 0 0 0 0 0 0 0 0 0 0 0 0 0 0 0 0 0 0 0 0 0 0 0 0 0
0 0 0 0 0 0 0 0 0 0 0 0 0 0 0 0 0 0 0 0 0 0 0 0 0 0 0 0 0 0 0 0 0 0 0 0 0 0 0 0 0 0 0
Wind_Speed_500mb
28 33 38 40 39 38 34 36 39 38 37 34 32 33 35 37 40 40 35 35 43 44 38 40 41 42 45 46 47 48 53 58 74 83 78 73 72 75 76 75 75 74 75
29 31 32 34 34 33 34 32 33 33 33 31 28 29 30 28 27 29 29 27 28 28 30 31 30 34 37 40 44 47 52 55 64 85 81 78 77 77 79 81 81 85 87
25 27 29 30 28 28 29 28 27 25 24 23 21 21 21 20 19 18 18 17 17 20 24 27 30 34 38 41 45 50 55 61 66 79 93 85 83 80 85 87 92 97 99
28 27 27 29 31 31 31 28 24 22 20 18 15 13 11 9 8 10 14 18 21 25 29 33 37 39 43 48 54 57 61 66 71 78 88 92 86 83 84 89 98 90 97
30 29 31 31 31 29 28 28 26 24 20 17 12 8 7 9 13 16 20 23 26 28 31 36 39 42 46 49 55 57 61 66 70 76 86 91 91 90 85 81 88 97 103
35 35 34 32 32 31 30 29 26 22 17 13 10 6 6 9 15 20 25 28 32 36 38 40 44 47 51 53 56 60 61 63 67 72 79 83 87 82 81 81 83 89 104
38 38 37 36 34 31 28 26 23 20 16 11 6 3 8 14 21 28 32 34 37 41 46 51 53 53 57 60 61 63 64 64 66 68 74 75 83 76 78 85 82 81 95
44 42 40 36 34 32 28 24 20 15 9 3 2 9 16 22 29 35 39 41 44 46 48 50 52 53 53 56 60 62 64 65 66 68 71 77 74 78 75 81 90 92 97
48 44 40 36 33 30 24 19 13 6 3 6 12 18 23 26 29 35 40 44 47 48 49 50 54 56 55 58 62 65 68 71 70 65 66 67 70 75 75 74 72 76 92
46 43 40 37 31 26 19 13 8 6 11 18 23 22 22 25 30 37 44 49 50 50 49 52 53 57 60 57 55 62 73 78 73 70 70 72 70 71 67 62 65 70 79
46 42 37 33 27 21 16 12 14 17 19 17 18 21 23 27 32 37 41 47 53 56 59 62 64 65 65 63 54 56 65 67 68 64 69 69 68 69 74 66 59 65 73
47 41 36 26 15 6 10 14 13 12 12 13 16 19 24 30 34 39 44 48 54 59 61 63 65 65 63 59 53 48 47 49 56 62 65 66 71 77 76 67 66 64 60
44 35 24 12 4 5 2 12 14 16 14 15 17 20 23 29 35 42 46 48 51 55 57 59 60 60 57 54 49 46 44 44 47 56 63 69 77 76 70 66 60 58 57
32 21 12 5 5 11 11 21 17 14 14 15 18 23 28 31 34 38 43 46 49 53 57 59 59 57 58 59 59 54 48 44 49 55 63 69 67 68 68 63 60 57 57
26 13 17 19 17 26 24 16 14 15 16 18 22 25 26 27 33 39 43 47 50 52 55 54 55 58 61 61 60 58 46 42 50 58 60 62 62 64 64 56 52 53 50
26 32 30 32 34 23 16 13 14 15 18 23 27 27 25 26 31 35 37 38 42 46 47 51 52 52 53 54 54 55 50 51 54 55 54 56 60 62 61 56 53 47 48
43 40 43 37 27 18 14 13 13 13 19 23 25 26 26 27 31 35 37 38 41 41 43 45 47 48 49 50 52 53 56 52 51 49 51 49 57 56 55 54 49 45 45
47 45 35 26 21 18 18 17 14 8 10 16 20 21 22 25 29 34 37 36 35 41 46 48 49 49 50 51 51 52 53 52 50 49 47 45 43 49 52 51 48 46 45
44 34 28 25 24 20 18 18 14 11 10 13 15 21 20 24 27 31 36 42 45 44 43 42 42 44 45 47 49 50 50 52 51 51 48 46 43 42 43 49 47 44 41
40 36 31 28 23 22 22 20 18 13 11 14 19 23 28 27 29 33 39 42 42 41 41 41 41 42 43 45 46 47 48 48 50 50 50 47 46 40 38 41 45 44 40
43 36 30 28 28 27 23 21 18 15 14 15 19 22 29 33 35 37 37 37 37 38 40 40 41 41 43 43 44 45 46 46 47 50 51 50 48 48 42 39 38 38 37
41 35 34 34 32 28 24 22 19 17 17 17 18 23 28 32 35 34 33 33 34 37 40 42 40 41 43 44 45 44 45 48 47 47 50 50 50 50 48 45 42 37 33
41 41 39 34 32 29 24 24 22 19 19 21 23 26 30 31 32 33 34 34 33 33 34 37 39 39 39 41 42 44 45 44 46 47 50 50 50 50 49 48 45 42 37
47 42 37 35 31 28 25 26 24 22 20 22 26 28 31 33 35 36 36 34 33 33 35 37 38 40 40 40 40 40 41 41 41 43 46 48 49 48 47 46 45 42 39
47 41 38 34 32 32 29 28 25 24 23 26 28 31 34 37 38 37 36 36 36 37 37 40 43 43 45 45 44 42 40 40 40 42 43 44 45 45 45 43 43 42 38
45 40 39 39 37 34 30 28 27 27 27 29 33 36 38 39 38 36 37 40 44 46 47 48 48 49 48 48 47 47 45 43 42 42 43 42 43 43 43 42 41 40 38
Wind_Direction_500mb
222 218 215 205 207 214 220 225 229 232 237 241 242 236 244 249 251 250 245 255 270 274 270 275 280 283 284 286 286 285 286 287 288 293 297 299 298 301 304 305 304 300 299
217 211 208 213 212 208 209 216 222 229 234 233 235 236 231 235 249 257 260 265 271 279 284 288 294 297 300 299 298 297 296 297 296 296 300 302 302 305 304 304 305 308 308
210 201 192 187 186 188 194 200 203 210 214 221 226 230 233 239 246 254 263 271 281 290 297 301 304 305 307 306 305 304 303 302 301 299 301 304 305 307 308 307 309 308 305
203 197 192 187 187 190 189 185 185 188 190 188 191 197 207 224 251 276 288 291 295 298 301 301 301 301 302 303 301 301 300 299 298 298 300 304 306 309 308 309 307 307 305
196 189 185 181 176 172 169 167 166 168 171 172 177 196 236 274 289 295 299 302 304 305 306 306 306 308 304 301 300 302 302 303 303 303 303 304 306 309 310 309 303 306 303
193 185 179 173 171 170 169 167 164 167 166 168 180 211 260 290 300 305 305 305 305 304 305 303 304 305 303 303 304 307 308 306 304 304 302 302 304 307 306 304 302 304 305
192 185 180 178 176 173 171 167 163 164 163 167 173 254 297 306 308 306 303 310 315 317 316 315 314 312 312 311 310 308 305 303 303 303 300 299 303 306 307 307 304 300 297
192 187 182 178 178 174 172 166 159 154 152 142 341 328 319 312 313 319 318 318 318 319 319 318 316 316 314 311 308 306 305 304 304 303 300 300 302 305 305 303 303 300 301
193 188 182 179 179 172 167 156 147 131 62 348 336 329 325 328 320 314 316 318 318 321 323 324 324 323 322 320 317 314 311 311 315 307 302 302 303 301 298 299 297 296 290
189 186 181 177 174 168 158 139 109 52 19 352 331 326 317 318 322 323 324 325 326 326 329 330 332 330 328 326 319 316 311 313 313 313 309 306 305 304 307 303 303 298 295
187 180 174 169 163 149 122 76 30 358 327 313 313 318 326 329 330 329 329 331 332 335 335 336 335 331 329 327 322 314 313 313 313 313 312 312 310 308 317 316 311 302 297
180 172 162 156 149 127 18 4 335 285 281 305 316 324 333 334 332 332 333 334 333 332 333 331 330 329 327 329 332 330 330 321 316 317 317 317 316 315 320 316 311 307 301
167 162 159 141 71 33 3 254 259 271 283 302 316 330 338 339 338 337 334 331 326 324 324 326 326 327 328 328 331 336 334 329 328 323 319 315 313 315 318 320 320 315 313
170 172 189 287 203 211 261 255 254 276 294 305 319 332 337 337 333 328 329 329 328 328 329 328 326 323 326 329 329 332 336 339 332 321 317 315 319 321 321 325 322 322 317
181 195 175 190 217 231 230 243 264 285 298 312 321 323 327 329 333 335 336 337 334 333 331 328 326 326 325 327 328 329 323 332 322 326 326 325 322 323 324 327 322 316 317
196 187 203 216 215 217 233 251 267 287 305 306 305 313 328 332 330 333 336 338 333 333 334 332 332 333 333 332 332 332 331 321 322 324 326 330 327 327 326 322 319 317 320
198 204 216 212 214 224 241 260 276 285 299 305 311 318 329 333 334 334 338 341 339 337 334 336 336 336 337 336 334 333 331 332 327 320 321 327 331 326 327 325 322 323 324
214 216 214 219 227 238 246 251 254 266 291 303 309 318 334 334 333 333 339 341 331 339 343 342 341 338 336 335 335 335 335 335 334 331 324 323 323 332 331 327 325 321 322
214 215 221 230 241 250 259 264 272 286 297 299 312 318 328 328 332 338 336 334 338 339 338 339 338 337 337 336 335 336 338 339 339 340 337 331 326 327 333 332 326 324 320
219 221 226 235 248 254 260 269 275 278 288 302 313 318 322 331 331 334 336 336 335 334 334 336 338 339 339 338 337 336 337 338 341 343 344 342 341 335 332 336 331 329 324
223 227 236 246 251 254 257 259 265 278 292 305 313 320 326 332 331 331 330 328 327 327 328 331 333 333 333 335 336 338 338 339 340 340 343 344 343 342 338 330 331 331 330
229 236 244 247 250 252 253 260 267 279 290 297 307 316 321 322 323 322 319 320 321 322 322 322 324 324 325 328 330 333 336 337 339 341 343 344 342 339 336 336 332 327 327
232 238 241 246 251 252 254 259 265 274 287 301 310 316 315 313 311 312 313 314 316 317 317 318 321 323 324 325 326 327 329 331 332 334 336 341 344 343 341 337 332 329 322
239 243 246 247 246 246 251 257 265 276 289 299 303 305 305 306 307 305 306 309 311 313 313 315 317 319 321 324 325 327 330 330 327 323 325 331 335 337 339 340 340 334 326
240 242 245 247 247 246 248 254 266 275 284 291 294 299 300 300 300 301 304 306 307 308 309 308 309 310 311 313 315 318 322 324 325 325 325 328 330 331 332 334 337 339 337
238 239 241 242 243 245 250 258 266 275 282 288 292 293 294 296 297 299 300 302 303 304 304 304 305 304 304 305 306 307 308 309 312 316 321 327 330 332 331 333 332 332 334
Wind_Speed_850mb
28 33 38 40 39 38 34 36 39 38 37 34 32 33 35 37 40 40 35 35 43 44 38 40 41 42 45 46 47 48 53 58 74 83 78 73 72 75 76 75 75 74 75
29 31 32 34 34 33 34 32 33 33 33 31 28 29 30 28 27 29 29 27 28 28 30 31 30 34 37 40 44 47 52 55 64 85 81 78 77 77 79 81 81 85 87
25 27 29 30 28 28 29 28 27 25 24 23 21 21 21 20 19 18 18 17 17 20 24 27 30 34 38 41 45 50 55 61 66 79 93 85 83 80 85 87 92 97 99
28 27 27 29 31 31 31 28 24 22 20 18 15 13 11 9 8 10 14 18 21 25 29 33 37 39 43 48 54 57 61 66 71 78 88 92 86 83 84 89 98 90 97
30 29 31 31 31 29 28 28 26 24 20 17 12 8 7 9 13 16 20 23 26 28 31 36 39 42 46 49 55 57 61 66 70 76 86 91 91 90 85 81 88 97 103
35 35 34 32 32 31 30 29 26 22 17 13 10 6 6 9 15 20 25 28 32 36 38 40 44 47 51 53 56 60 61 63 67 72 79 83 87 82 81 81 83 89 104
38 38 37 36 34 31 28 26 23 20 16 11 6 3 8 14 21 28 32 34 37 41 46 51 53 53 57 60 61 63 64 64 66 68 74 75 83 76 78 85 82 81 95
44 42 40 36 34 32 28 24 20 15 9 3 2 9 16 22 29 35 39 41 44 46 48 50 52 53 53 56 60 62 64 65 66 68 71 77 74 78 75 81 90 92 97
48 44 40 36 33 30 24 19 13 6 3 6 12 18 23 26 29 35 40 44 47 48 49 50 54 56 55 58 62 65 68 71 70 65 66 67 70 75 75 74 72 76 92
46 43 40 37 31 26 19 13 8 6 11 18 23 22 22 25 30 37 44 49 50 50 49 52 53 57 60 57 55 62 73 78 73 70 70 72 70 71 67 62 65 70 79
46 42 37 33 27 21 16 12 14 17 19 17 18 21 23 27 32 37 41 47 53 56 59 62 64 65 65 63 54 56 65 67 68 64 69 69 68 69 74 66 59 65 73
47 41 36 26 15 6 10 14 13 12 12 13 16 19 24 30 34 39 44 48 54 59 61 63 65 65 63 59 53 48 47 49 56 62 65 66 71 77 76 67 66 64 60
44 35 24 12 4 5 2 12 14 16 14 15 17 20 23 29 35 42 46 48 51 55 57 59 60 60 57 54 49 46 44 44 47 56 63 69 77 76 70 66 60 58 57
32 21 12 5 5 11 11 21 17 14 14 15 18 23 28 31 34 38 43 46 49 53 57 59 59 57 58 59 59 54 48 44 49 55 63 69 67 68 68 63 60 57 57
26 13 17 19 17 26 24 16 14 15 16 18 22 25 26 27 33 39 43 47 50 52 55 54 55 58 61 61 60 58 46 42 50 58 60 62 62 64 64 56 52 53 50
26 32 30 32 34 23 16 13 14 15 18 23 27 27 25 26 31 35 37 38 42 46 47 51 52 52 53 54 54 55 50 51 54 55 54 56 60 62 61 56 53 47 48
43 40 43 37 27 18 14 13 13 13 19 23 25 26 26 27 31 35 37 38 41 41 43 45 47 48 49 50 52 53 56 52 51 49 51 49 57 56 55 54 49 45 45
47 45 35 26 21 18 18 17 14 8 10 16 20 21 22 25 29 34 37 36 35 41 46 48 49 49 50 51 51 52 53 52 50 49 47 45 43 49 52 51 48 46 45
44 34 28 25 24 20 18 18 14 11 10 13 15 21 20 24 27 31 36 42 45 44 43 42 42 44 45 47 49 50 50 52 51 51 48 46 43 42 43 49 47 44 41
40 36 31 28 23 22 22 20 18 13 11 14 19 23 28 27 29 33 39 42 42 41 41 41 41 42 43 45 46 47 48 48 50 50 50 47 46 40 38 41 45 44 40
43 36 30 28 28 27 23 21 18 15 14 15 19 22 29 33 35 37 37 37 37 38 40 40 41 41 43 43 44 45 46 46 47 50 51 50 48 48 42 39 38 38 37
41 35 34 34 32 28 24 22 19 17 17 17 18 23 28 32 35 34 33 33 34 37 40 42 40 41 43 44 45 44 45 48 47 47 50 50 50 50 48 45 42 37 33
41 41 39 34 32 29 24 24 22 19 19 21 23 26 30 31 32 33 34 34 33 33 34 37 39 39 39 41 42 44 45 44 46 47 50 50 50 50 49 48 45 42 37
47 42 37 35 31 28 25 26 24 22 20 22 26 28 31 33 35 36 36 34 33 33 35 37 38 40 40 40 40 40 41 41 41 43 46 48 49 48 47 46 45 42 39
47 41 38 34 32 32 29 28 25 24 23 26 28 31 34 37 38 37 36 36 36 37 37 40 43 43 45 45 44 42 40 40 40 42 43 44 45 45 45 43 43 42 38
45 40 39 39 37 34 30 28 27 27 27 29 33 36 38 39 38 36 37 40 44 46 47 48 48 49 48 48 47 47 45 43 42 42 43 42 43 43 43 42 41 40 38
Wind_Direction_850mb
222 218 215 205 207 214 220 225 229 232 237 241 242 236 244 249 251 250 245 255 270 274 270 275 280 283 284 286 286 285 286 287 288 293 297 299 298 301 304 305 304 300 299
217 211 208 213 212 208 209 216 222 229 234 233 235 236 231 235 249 257 260 265 271 279 284 288 294 297 300 299 298 297 296 297 296 296 300 302 302 305 304 304 305 308 308
210 201 192 187 186 188 194 200 203 210 214 221 226 230 233 239 246 254 263 271 281 290 297 301 304 305 307 306 305 304 303 302 301 299 301 304 305 307 308 307 309 308 305
203 197 192 187 187 190 189 185 185 188 190 188 191 197 207 224 251 276 288 291 295 298 301 301 301 301 302 303 301 301 300 299 298 298 300 304 306 309 308 309 307 307 305
196 189 185 181 176 172 169 167 166 168 171 172 177 196 236 274 289 295 299 302 304 305 306 306 306 308 304 301 300 302 302 303 303 303 303 304 306 309 310 309 303 306 303
193 185 179 173 171 170 169 167 164 167 166 168 180 211 260 290 300 305 305 305 305 304 305 303 304 305 303 303 304 307 308 306 304 304 302 302 304 307 306 304 302 304 305
192 185 180 178 176 173 171 167 163 164 163 167 173 254 297 306 308 306 303 310 315 317 316 315 314 312 312 311 310 308 305 303 303 303 300 299 303 306 307 307 304 300 297
192 187 182 178 178 174 172 166 159 154 152 142 341 328 319 312 313 319 318 318 318 319 319 318 316 316 314 311 308 306 305 304 304 303 300 300 302 305 305 303 303 300 301
193 188 182 179 179 172 167 156 147 131 62 348 336 329 325 328 320 314 316 318 318 321 323 324 324 323 322 320 317 314 311 311 315 307 302 302 303 301 298 299 297 296 290
189 186 181 177 174 168 158 139 109 52 19 352 331 326 317 318 322 323 324 325 326 326 329 330 332 330 328 326 319 316 311 313 313 313 309 306 305 304 307 303 303 298 295
187 180 174 169 163 149 122 76 30 358 327 313 313 318 326 329 330 329 329 331 332 335 335 336 335 331 329 327 322 314 313 313 313 313 312 312 310 308 317 316 311 302 297
180 172 162 156 149 127 18 4 335 285 281 305 316 324 333 334 332 332 333 334 333 332 333 331 330 329 327 329 332 330 330 321 316 317 317 317 316 315 320 316 311 307 301
167 162 159 141 71 33 3 254 259 271 283 302 316 330 338 339 338 337 334 331 326 324 324 326 326 327 328 328 331 336 334 329 328 323 319 315 313 315 318 320 320 315 313
170 172 189 287 203 211 261 255 254 276 294 305 319 332 337 337 333 328 329 329 328 328 329 328 326 323 326 329 329 332 336 339 332 321 317 315 319 321 321 325 322 322 317
181 195 175 190 217 231 230 243 264 285 298 312 321 323 327 329 333 335 336 337 334 333 331 328 326 326 325 327 328 329 323 332 322 326 326 325 322 323 324 327 322 316 317
196 187 203 216 215 217 233 251 267 287 305 306 305 313 328 332 330 333 336 338 333 333 334 332 332 333 333 332 332 332 331 321 322 324 326 330 327 327 326 322 319 317 320
198 204 216 212 214 224 241 260 276 285 299 305 311 318 329 333 334 334 338 341 339 337 334 336 336 336 337 336 334 333 331 332 327 320 321 327 331 326 327 325 322 323 324
214 216 214 219 227 238 246 251 254 266 291 303 309 318 334 334 333 333 339 341 331 339 343 342 341 338 336 335 335 335 335 335 334 331 324 323 323 332 331 327 325 321 322
214 215 221 230 241 250 259 264 272 286 297 299 312 318 328 328 332 338 336 334 338 339 338 339 338 337 337 336 335 336 338 339 339 340 337 331 326 327 333 332 326 324 320
219 221 226 235 248 254 260 269 275 278 288 302 313 318 322 331 331 334 336 336 335 334 334 336 338 339 339 338 337 336 337 338 341 343 344 342 341 335 332 336 331 329 324
223 227 236 246 251 254 257 259 265 278 292 305 313 320 326 332 331 331 330 328 327 327 328 331 333 333 333 335 336 338 338 339 340 340 343 344 343 342 338 330 331 331 330
229 236 244 247 250 252 253 260 267 279 290 297 307 316 321 322 323 322 319 320 321 322 322 322 324 324 325 328 330 333 336 337 339 341 343 344 342 339 336 336 332 327 327
232 238 241 246 251 252 254 259 265 274 287 301 310 316 315 313 311 312 313 314 316 317 317 318 321 323 324 325 326 327 329 331 332 334 336 341 344 343 341 337 332 329 322
239 243 246 247 246 246 251 257 265 276 289 299 303 305 305 306 307 305 306 309 311 313 313 315 317 319 321 324 325 327 330 330 327 323 325 331 335 337 339 340 340 334 326
240 242 245 247 247 246 248 254 266 275 284 291 294 299 300 300 300 301 304 306 307 308 309 308 309 310 311 313 315 318 322 324 325 325 325 328 330 331 332 334 337 339 337
238 239 241 242 243 245 250 258 266 275 282 288 292 293 294 296 297 299 300 302 303 304 304 304 305 304 304 305 306 307 308 309 312 316 321 327 330 332 331 333 332 332 334